Location: Unspecified
(0.0000°N, 0.0000°E)
Time: 22:14:11

N. Korean satellite - Pass Details

Date: 17 March 2018
Orbit: 460 x 512 km, 97.2° (Epoch: 17 March)

Event Time Altitude Azimuth Distance (km) Brightness Sun altitude
Rises 18:41:58 0° 187° (S) 2,507 10.3 -8.4°
Reaches altitude 10° 18:44:11 10° 199° (SSW) 1,636 9.5 -9.0°
Maximum altitude 18:47:15 28° 259° (W) 921 8.9 -9.7°
Drops below altitude 10° 18:50:20 10° 320° (NW) 1,653 9.8 -10.5°
Sets 18:52:36 0° 332° (NNW) 2,540 10.6 -11.1°
